Weather History for KGFK - June, 2014

Change the Weather History Date:

Saturday, June 7, 2014

  Actual Average Record
Temperature  
Mean Temperature 60 °F 62 °F  
Max Temperature 71 °F 74 °F 98 °F (1959)
Min Temperature 49 °F 50 °F 31 °F (1915)
Degree Days  
Heating Degree Days 5 5  
Month to date heating degree days 14 39  
Since 1 June heating degree days 14 39  
Since 1 July heating degree days 10555 9451  
Cooling Degree Days 0 2  
Month to date cooling degree days 11 10  
Year to date cooling degree days 64 27  
Since 1 June cooling degree days 11 10  
Growing Degree Days 12 (Base 50)    
Moisture  
Dew Point 43 °F    
Average Humidity 55    
Maximum Humidity 83    
Minimum Humidity 27    
Precipitation  
Precipitation 0.00 in 0.11 in 1.86 in (1968)
Month to date precipitation 2.27 0.74  
Year to date precipitation 9.45 6.46  
Snow  
Snow 0.00 in 0.00 in - ()
Month to date snowfall 0.0 0.0  
Since 1 June snowfall 0.0 0.0  
Since 1 July snowfall 60.3 47.4  
Snow Depth 0.00 in    
Sea Level Pressure  
Sea Level Pressure 30.08 in    
Wind  
Wind Speed 5 mph (NW)    
Max Wind Speed 18 mph    
Max Gust Speed 25 mph    
Visibility 10 miles    
Events      
T = Trace of Precipitation, MM = Missing Value Source: NWS Daily Summary

Daily Weather History Graph

Daily Weather History Graph

Search for Another Location

Airport or City:

Trip Planner

Search our weather history database for the weather conditions in past years. The results will help you decide how hot, cold, wet, or windy it might be!

Date:

Astronomy

Jun. 07, 2014 Rise Set
Actual Time 5:30 AM CDT 9:25 PM CDT
Civil Twilight 4:50 AM CDT 10:05 PM CDT
Nautical Twilight 3:54 AM CDT 11:01 PM CDT
Astronomical Twilight 2:28 AM CDT 12:29 AM CDT
Moon 3:20 PM CDT (6/7) 2:18 AM CDT (6/7)
Length of Visible Light 17h 15m
Length of Day
15h 54m
Waxing Gibbous, 68% of the Moon is Illuminated
Jun 7
Waxing Gibbous
Jun 12
Full
Jun 19
Last Quarter
Jun 27
New
Jul 5
First Quarter

Hourly Weather History & Observations

Time (CDT) Temp. Dew Point Humidity Pressure Visibility Wind Dir Wind Speed Gust Speed Precip Events Conditions
12:53 AM 55.0 °F 46.9 °F 74% 30.07 in 10.0 mi WNW 4.6 mph - N/A   Overcast
1:53 AM 55.0 °F 46.9 °F 74% 30.07 in 10.0 mi West 4.6 mph - N/A   Overcast
2:53 AM 54.0 °F 48.0 °F 80% 30.07 in 10.0 mi WNW 3.5 mph - N/A   Overcast
3:53 AM 53.6 °F 48.2 °F 82% 30.08 in 10.0 mi Calm Calm - N/A   Overcast
4:53 AM 53.1 °F 46.9 °F 80% 30.10 in 10.0 mi WNW 3.5 mph - N/A   Overcast
5:53 AM 53.1 °F 46.9 °F 80% 30.10 in 10.0 mi Calm Calm - N/A   Mostly Cloudy
6:53 AM 54.0 °F 48.0 °F 80% 30.11 in 10.0 mi Calm Calm - N/A   Scattered Clouds
7:53 AM 57.9 °F 46.0 °F 65% 30.11 in 10.0 mi WNW 3.5 mph - N/A   Mostly Cloudy
8:53 AM 62.1 °F 46.0 °F 56% 30.11 in 10.0 mi Calm Calm - N/A   Scattered Clouds
9:53 AM 64.4 °F 44.6 °F 49% 30.10 in 10.0 mi NW 6.9 mph - N/A   Scattered Clouds
10:53 AM 66.9 °F 39.0 °F 36% 30.09 in 10.0 mi NNW 8.1 mph 20.7 mph N/A   Scattered Clouds
11:53 AM 66.9 °F 35.1 °F 31% 30.08 in 10.0 mi NW 11.5 mph 19.6 mph N/A   Scattered Clouds
12:53 PM 68.0 °F 33.1 °F 27% 30.07 in 10.0 mi WNW 8.1 mph 17.3 mph N/A   Scattered Clouds
1:53 PM 70.0 °F 36.0 °F 29% 30.06 in 10.0 mi NW 9.2 mph - N/A   Mostly Cloudy
2:53 PM 70.0 °F 37.0 °F 30% 30.06 in 10.0 mi WNW 15.0 mph 19.6 mph N/A   Mostly Cloudy
3:53 PM 71.1 °F 37.9 °F 30% 30.05 in 10.0 mi WNW 10.4 mph 16.1 mph N/A   Scattered Clouds
4:53 PM 69.1 °F 37.9 °F 32% 30.05 in 10.0 mi NW 10.4 mph - N/A   Mostly Cloudy
5:53 PM 68.0 °F 37.9 °F 33% 30.05 in 10.0 mi NW 6.9 mph - N/A   Mostly Cloudy
6:53 PM 69.1 °F 39.9 °F 35% 30.04 in 10.0 mi NNW 9.2 mph - N/A   Scattered Clouds
7:53 PM 66.9 °F 43.0 °F 42% 30.05 in 10.0 mi NW 4.6 mph - N/A   Partly Cloudy
8:53 PM 63.0 °F 46.0 °F 54% 30.06 in 10.0 mi NW 4.6 mph - N/A   Partly Cloudy
9:53 PM 55.9 °F 46.9 °F 72% 30.07 in 10.0 mi NNW 4.6 mph - N/A   Partly Cloudy
10:53 PM 55.0 °F 44.1 °F 67% 30.08 in 10.0 mi Calm Calm - N/A   Clear
11:53 PM 52.0 °F 43.0 °F 71% 30.09 in 10.0 mi Calm Calm - N/A   Clear